When you browse on this site, cookies collect data to enhance your experience and personalize the content and advertising you see.
Visit our Privacy Policy to learn more. By continuing to use the site, you agree to this use of cookies and data.
  • In Romania
  • List of Countries
  • For 7 days
  • Water Temperature
  • Satellite Maps
  • Weather Map
  • Weather Widgets
  • user-avatar
    Login

    Hourly Weather Prutz

    Today, 20 June, Thursday

    Time Temperature Precipitation Wind Pressure Humidity
    00:00 +12°C° 0.2 mm 1 mps 633 mmHg 83%
    01:00 +12°C° 0 mm 2 mps 633 mmHg 81%
    02:00 +12°C° 0.7 mm 2 mps 633 mmHg 83%
    03:00 +11°C° 0.7 mm 1 mps 632 mmHg 86%
    04:00 +10°C° 0.7 mm 0 mps 632 mmHg 88%
    05:00 +11°C° 0.4 mm 0 mps 633 mmHg 86%
    06:00 +13°C° 0.4 mm 0 mps 633 mmHg 83%
    07:00 +14°C° 0.4 mm 0 mps 634 mmHg 80%
    08:00 +15°C° 1.1 mm 0 mps 634 mmHg 78%
    09:00 +16°C° 1.1 mm 1 mps 634 mmHg 76%
    10:00 +18°C° 1.1 mm 1 mps 634 mmHg 75%
    11:00 +18°C° 1.7 mm 1 mps 634 mmHg 76%
    12:00 +18°C° 1.7 mm 1 mps 634 mmHg 78%
    13:00 +16°C° 1.7 mm 2 mps 634 mmHg 80%
    14:00 +16°C° 1.2 mm 2 mps 634 mmHg 81%
    15:00 +16°C° 1.2 mm 2 mps 634 mmHg 82%
    16:00 +16°C° 1.2 mm 2 mps 634 mmHg 84%
    17:00 +16°C° 0.7 mm 1 mps 634 mmHg 86%
    18:00 +15°C° 0.7 mm 1 mps 634 mmHg 89%
    19:00 +15°C° 0.7 mm 1 mps 634 mmHg 91%
    20:00 +14°C° 0.8 mm 1 mps 634 mmHg 93%
    21:00 +13°C° 0.8 mm 1 mps 634 mmHg 94%
    22:00 +13°C° 0.8 mm 1 mps 634 mmHg 95%
    23:00 +12°C° 0.3 mm 1 mps 634 mmHg 95%

    Tomorrow, 21 June, Friday

    Time Temperature Precipitation Wind Pressure Humidity
    00:00 +12°C° 0.3 mm 1 mps 634 mmHg 94%
    01:00 +12°C° 0.3 mm 1 mps 634 mmHg 93%
    02:00 +12°C° 0 mm 1 mps 634 mmHg 92%
    03:00 +10°C° 0 mm 0 mps 634 mmHg 91%
    04:00 +10°C° 0 mm 0 mps 634 mmHg 90%
    05:00 +11°C° 0.1 mm 0 mps 634 mmHg 87%
    06:00 +12°C° 0.1 mm 0 mps 635 mmHg 85%
    07:00 +13°C° 0.1 mm 0 mps 635 mmHg 83%
    08:00 +13°C° 0.1 mm 0 mps 635 mmHg 77%
    09:00 +15°C° 0.1 mm 1 mps 636 mmHg 72%
    10:00 +15°C° 0.1 mm 1 mps 636 mmHg 67%
    11:00 +18°C° 0.1 mm 1 mps 636 mmHg 63%
    12:00 +19°C° 0.1 mm 1 mps 636 mmHg 60%
    13:00 +20°C° 0.1 mm 1 mps 637 mmHg 56%
    14:00 +19°C° 0.7 mm 1 mps 636 mmHg 63%
    15:00 +18°C° 0.7 mm 1 mps 636 mmHg 70%
    16:00 +17°C° 0.7 mm 2 mps 636 mmHg 77%
    17:00 +16°C° 3 mm 1 mps 635 mmHg 84%
    18:00 +15°C° 3 mm 1 mps 635 mmHg 90%
    19:00 +13°C° 3 mm 1 mps 635 mmHg 97%
    20:00 +13°C° 1.8 mm 1 mps 635 mmHg 97%
    21:00 +12°C° 1.8 mm 1 mps 635 mmHg 97%
    22:00 +12°C° 1.8 mm 1 mps 635 mmHg 98%
    23:00 +12°C° 0.5 mm 1 mps 635 mmHg 97%

    Day after tomorrow, 22 June, Saturday

    Time Temperature Precipitation Wind Pressure Humidity
    00:00 +11°C° 0.5 mm 0 mps 635 mmHg 97%
    01:00 +11°C° 0.5 mm 0 mps 634 mmHg 97%
    02:00 +10°C° 0 mm 0 mps 634 mmHg 97%
    03:00 +11°C° 0 mm 1 mps 634 mmHg 96%
    04:00 +10°C° 0 mm 1 mps 633 mmHg 96%
    05:00 +11°C° 0.3 mm 1 mps 634 mmHg 94%
    06:00 +12°C° 0.3 mm 1 mps 634 mmHg 93%
    07:00 +13°C° 0.3 mm 1 mps 634 mmHg 92%
    08:00 +13°C° 0.6 mm 1 mps 634 mmHg 91%
    09:00 +13°C° 0.6 mm 1 mps 634 mmHg 90%
    10:00 +14°C° 0.6 mm 1 mps 634 mmHg 88%
    11:00 +14°C° 0.6 mm 1 mps 635 mmHg 88%
    12:00 +14°C° 0.6 mm 1 mps 635 mmHg 87%
    13:00 +15°C° 0.6 mm 1 mps 635 mmHg 87%
    14:00 +14°C° 1.8 mm 1 mps 634 mmHg 88%
    15:00 +14°C° 1.8 mm 1 mps 634 mmHg 89%
    16:00 +14°C° 1.8 mm 1 mps 634 mmHg 90%
    17:00 +13°C° 0.9 mm 1 mps 634 mmHg 92%
    18:00 +13°C° 0.9 mm 1 mps 634 mmHg 93%
    19:00 +13°C° 0.9 mm 1 mps 634 mmHg 94%
    20:00 +12°C° 0.3 mm 1 mps 634 mmHg 95%
    21:00 +12°C° 0.3 mm 1 mps 634 mmHg 95%
    22:00 +10°C° 0.3 mm 0 mps 634 mmHg 95%
    23:00 +9°C° 0 mm 0 mps 634 mmHg 95%

    23 June, Sunday

    Time Temperature Precipitation Wind Pressure Humidity
    00:00 +9°C° 0 mm 0 mps 634 mmHg 96%
    01:00 +9°C° 0 mm 1 mps 633 mmHg 96%
    02:00 +9°C° 0 mm 1 mps 633 mmHg 96%
    03:00 +9°C° 0 mm 1 mps 633 mmHg 96%
    04:00 +8°C° 0 mm 0 mps 633 mmHg 96%
    05:00 +9°C° 0 mm 0 mps 634 mmHg 93%
    06:00 +10°C° 0 mm 0 mps 635 mmHg 89%
    07:00 +12°C° 0 mm 0 mps 635 mmHg 86%
    08:00 +15°C° 0 mm 1 mps 636 mmHg 78%
    09:00 +16°C° 0 mm 1 mps 637 mmHg 70%
    10:00 +19°C° 0 mm 1 mps 637 mmHg 62%
    11:00 +20°C° 0 mm 1 mps 637 mmHg 59%
    12:00 +20°C° 0 mm 2 mps 638 mmHg 56%
    13:00 +21°C° 0 mm 2 mps 638 mmHg 53%
    14:00 +21°C° 0 mm 2 mps 638 mmHg 54%
    15:00 +21°C° 0 mm 2 mps 638 mmHg 56%
    16:00 +21°C° 0 mm 2 mps 638 mmHg 57%
    17:00 +20°C° 0 mm 2 mps 638 mmHg 64%
    18:00 +19°C° 0 mm 2 mps 638 mmHg 72%
    19:00 +18°C° 0 mm 2 mps 638 mmHg 79%
    20:00 +16°C° 0 mm 1 mps 637 mmHg 85%
    21:00 +14°C° 0 mm 1 mps 637 mmHg 90%
    22:00 +11°C° 0 mm 0 mps 637 mmHg 96%
    23:00 +11°C° 0 mm 0 mps 637 mmHg 95%

    24 June, Monday

    Time Temperature Precipitation Wind Pressure Humidity
    00:00 +12°C° 0 mm 1 mps 637 mmHg 95%
    01:00 +11°C° 0 mm 1 mps 637 mmHg 94%
    02:00 +11°C° 0 mm 1 mps 637 mmHg 93%
    03:00 +11°C° 0 mm 1 mps 636 mmHg 91%
    04:00 +11°C° 0 mm 1 mps 636 mmHg 90%
    05:00 +13°C° 0 mm 1 mps 638 mmHg 82%
    06:00 +15°C° 0 mm 0 mps 639 mmHg 74%
    07:00 +17°C° 0 mm 0 mps 640 mmHg 66%
    08:00 +21°C° 0 mm 1 mps 640 mmHg 56%
    09:00 +23°C° 0 mm 1 mps 641 mmHg 45%
    10:00 +25°C° 0 mm 1 mps 641 mmHg 35%
    11:00 +26°C° 0 mm 1 mps 642 mmHg 33%
    12:00 +27°C° 0 mm 1 mps 642 mmHg 31%
    13:00 +28°C° 0 mm 2 mps 642 mmHg 29%
    14:00 +27°C° 0 mm 2 mps 642 mmHg 30%
    15:00 +27°C° 0 mm 2 mps 642 mmHg 31%
    16:00 +27°C° 0 mm 2 mps 642 mmHg 32%
    17:00 +26°C° 0 mm 2 mps 641 mmHg 44%
    18:00 +24°C° 0 mm 2 mps 641 mmHg 56%
    19:00 +23°C° 0 mm 1 mps 641 mmHg 68%
    20:00 +20°C° 0 mm 1 mps 640 mmHg 75%
    21:00 +18°C° 0 mm 1 mps 640 mmHg 81%
    22:00 +14°C° 0 mm 0 mps 640 mmHg 87%
    23:00 +15°C° 0 mm 1 mps 640 mmHg 84%

    25 June, Tuesday

    Time Temperature Precipitation Wind Pressure Humidity
    00:00 +14°C° 0 mm 1 mps 639 mmHg 81%
    01:00 +14°C° 0 mm 1 mps 639 mmHg 78%
    02:00 +14°C° 0 mm 1 mps 639 mmHg 75%
    03:00 +14°C° 0 mm 1 mps 639 mmHg 72%
    04:00 +14°C° 0 mm 1 mps 639 mmHg 69%
    05:00 +16°C° 0 mm 1 mps 640 mmHg 61%
    06:00 +20°C° 0 mm 1 mps 641 mmHg 52%
    07:00 +21°C° 0 mm 0 mps 642 mmHg 44%
    08:00 +25°C° 0 mm 1 mps 643 mmHg 38%
    09:00 +27°C° 0 mm 1 mps 643 mmHg 32%
    10:00 +29°C° 0 mm 1 mps 644 mmHg 25%
    11:00 +29°C° 0 mm 2 mps 644 mmHg 24%
    12:00 +30°C° 0 mm 2 mps 644 mmHg 23%
    13:00 +31°C° 0 mm 3 mps 645 mmHg 22%
    14:00 +30°C° 0 mm 3 mps 645 mmHg 23%
    15:00 +30°C° 0 mm 3 mps 644 mmHg 25%
    16:00 +30°C° 0 mm 3 mps 644 mmHg 27%
    17:00 +28°C° 0 mm 3 mps 644 mmHg 37%
    18:00 +26°C° 0 mm 2 mps 644 mmHg 48%
    19:00 +25°C° 0 mm 2 mps 643 mmHg 58%
    20:00 +22°C° 0 mm 1 mps 643 mmHg 64%
    21:00 +20°C° 0 mm 1 mps 642 mmHg 70%
    22:00 +15°C° 0 mm 0 mps 642 mmHg 76%
    23:00 +16°C° 0 mm 1 mps 642 mmHg 74%
    Show more